Flag for Fiji Weather past 2 weeks in Lautoka, Fiji

Now
81 °F

Scattered clouds.


Feels Like: 81 °F
Forecast: 71 / 81 °F
Wind: 15 mph from Southeast

Location: Nandi

Current Time: Jul 28, 2015 at 4:07:09 PM

Latest Report: Jul 28, 2015 at 3:00 PM


Visibility: 31 mi

Pressure: 29.95 "Hg

Humidity: 45%

Dew point: 57 °F

Location of LautokaLocation

Historic Weather in Lautoka — Graph

°F

Lautoka temperature yesterday

Maximum temperature yesterday: 84 °F (at 1:00 PM)
Minimum temperature yesterday: 61 °F (at 5:00 AM)
Average temperature yesterday: 72 °F

Past Weeks' High & Low Weather Summary

 TemperatureHumidityPressure
High84 °F (Jul 13, 2:00 PM)100% (Jul 26, 4:00 AM)30.15 "Hg (Jul 26, 4:00 AM)
Low61 °F (Jul 26, 4:00 AM)40% (Jul 26, 1:00 PM)29.92 "Hg (Jul 15, 3:00 PM)
Average73 °F75%30.03 "Hg
* Reported Jul 13 2:00 PM — Jul 28 2:00 PM, Lautoka, Weather by CustomWeather, © 2015

Note: Actual official high and low records may vary slightly from our data, if they occured in-between our weather recording intervals... More about our weather records

Advertising

Lautoka weather history for previous 24 hours

 ConditionsComfort  
Time TempWeatherWind HumidityBarometerVisibility
2:00 PM
Tue, Jul 28
84 °FScattered clouds.10 mph43%29.95 "HgN/A
1:00 PM84 °FScattered clouds.6 mph43%29.98 "HgN/A
12:00 PM82 °FPassing clouds.12 mph45%30.01 "HgN/A
11:00 AM81 °FPassing clouds.8 mph48%30.04 "HgN/A
10:00 AM77 °FPassing clouds.7 mph57%30.04 "HgN/A
9:00 AM72 °FPassing clouds.2 mph69%30.07 "HgN/A
8:00 AM63 °FPassing clouds.3 mph88%30.04 "HgN/A
7:00 AM61 °FPassing clouds.2 mph94%30.04 "HgN/A
6:00 AM61 °FPassing clouds.2 mph94%30.01 "HgN/A
5:00 AM61 °FPassing clouds.2 mph94%30.01 "HgN/A
4:00 AM61 °FPassing clouds.2 mph94%30.01 "HgN/A
3:00 AM61 °FPassing clouds.3 mph94%30.01 "HgN/A
2:00 AM63 °FPassing clouds.2 mph88%30.01 "HgN/A
1:00 AM64 °FPassing clouds.3 mph88%30.04 "HgN/A
12:00 AM66 °FPassing clouds.2 mph83%30.04 "HgN/A
11:00 PM
Mon, Jul 27
66 °FPassing clouds.5 mph83%30.04 "HgN/A
10:00 PM68 °FPassing clouds.5 mph78%30.04 "HgN/A
9:00 PM70 °FPassing clouds.7 mph73%30.07 "HgN/A
8:00 PM72 °FPassing clouds.9 mph69%30.04 "HgN/A
7:00 PM73 °FPassing clouds.7 mph69%30.01 "HgN/A
6:00 PM77 °FPassing clouds.5 mph65%29.98 "HgN/A
5:00 PM79 °FPassing clouds.9 mph61%29.95 "HgN/A
4:00 PM81 °FScattered clouds.13 mph54%29.95 "HgN/A
Weather by CustomWeather, © 2015

See weather overviewHow to use our weather pages